Tracking 17142 objects as of 27-May-2015
HD Live streaming from Space Station

CRRES DEB (CANISTER)

Track CRRES DEB (CANISTER) now!
CRRES DEB (CANISTER) is classified as:


NORAD ID: 21590
Int'l Code: 1990-065F
Perigee: 339.4 km
Apogee: 31,346.0 km
Inclination: 20.4 °
Period: 549.1 minutes
Semi major axis: 22213 km
RCS: 0.1267 m2 (medium)
Launch date: July 25, 1990
Source: United States (US)

Note: This is SATELLITE DEBRIS
Your satellite tracking list
Your tracking list is empty





NASA's NSSDC Master Catalog

Two Line Element Set (TLE):
1 21590U 90065F   15146.38085375 -.00000009  00000-0  48537-3 0  9993
2 21590 020.4242 032.8625 6979171 178.2996 186.7844 02.62223714213666

Source of the keplerian elements: AFSPC

N2YO: 372